Location: Tel Aviv
(32.0670°N, 34.7670°E)
Time: 19:51:22
(UTC+03:00)

Vanguard 1 Rocket - Pass Details

Date: 11 December 2023
Orbit: 650 x 4220 km, 34.3° (Epoch: 21 June)

Event Time Altitude Azimuth Distance (km) Brightness Sun altitude
Rises 23:45:04 0° 205° (SSW) 7,519 12.0 -80.5°
Enters shadow 23:45:13 - 204° (SSW) 7,501 12.0 -80.5°
Exits shadow 00:21:12 30° 105° (ESE) 5,627 11.2 -76.1°
Drops below altitude 10° 00:32:07 10° 80° (E) 6,587 11.9 -74.2°
Sets 00:37:02 0° 73° (ENE) 7,221 12.2 -73.3°
